Location: Newark
(35.9031°N, 139.7175°E)
Time: 12:49:35
(UTC+00:00)

Transit 2A - Pass Details

Date: 28 May 2020
Orbit: 592 x 967 km, 66.7° (Epoch: 06 July)

Event Time Altitude Azimuth Distance (km) Brightness Sun altitude
Rises 14:03:20 0° 329° (NNW) 3,578 10.4 -31.9°
Reaches altitude 10° 14:05:50 10° 327° (NNW) 2,663 9.5 -32.0°
Enters shadow 14:11:01 58° 296° (WNW) 1,115 6.8 -32.1°
